| time (UTC) | temp F | wind direction | speed MPH | gust MPH | rain 1hr in | rain 24hr in | rain mn in | humidity % | barometer mb |
| 20260903190409 | 81 | 207 | 6.0 | 5.0 | 0.00 | 0.00 | 0.00 | 1019.7 | |
| 20260903190053 | 81 | 207 | 6.0 | 5.0 | 0.00 | 0.00 | 0.00 | 1019.7 | |
| 20260903185055 | 81 | 212 | 5.0 | 5.0 | 0.00 | 0.00 | 0.00 | 1019.5 | |
| 20260903184058 | 81 | 232 | 6.0 | 4.0 | 0.00 | 0.00 | 0.00 | 1019.3 | |
| 20260903183058 | 81 | 243 | 5.0 | 5.0 | 0.00 | 0.00 | 0.00 | 1019.3 | |
| 20260903182101 | 82 | 217 | 9.0 | 6.0 | 0.00 | 0.00 | 0.00 | 1019.2 | |
| 20260903181103 | 83 | 195 | 7.0 | 9.0 | 0.00 | 0.00 | 0.00 | 1019.2 | |
| 20260903180101 | 83 | 231 | 8.0 | 8.0 | 0.00 | 0.00 | 0.00 | 1019.1 | |
| 20260903175103 | 83 | 162 | 9.0 | 8.0 | 0.00 | 0.00 | 0.00 | 1019.1 | |
| 20260903174102 | 83 | 214 | 10.0 | 9.0 | 0.00 | 0.00 | 0.00 | 1019.1 | |
| 20260903173104 | 85 | 183 | 7.0 | 9.0 | 0.00 | 0.00 | 0.00 | 1019.1 | |
| 20260903172107 | 85 | 262 | 10.0 | 9.0 | 0.00 | 0.00 | 0.00 | 1019.1 | |
| 20260903171108 | 85 | 259 | 7.0 | 8.0 | 0.00 | 0.00 | 0.00 | 1019.1 | |
| 20260903170111 | 86 | 239 | 6.0 | 5.0 | 0.00 | 0.00 | 0.00 | 1019.1 | |
| 20260903165106 | 87 | 197 | 7.0 | 7.0 | 0.00 | 0.00 | 0.00 | 1019.1 | |
| 20260903164109 | 86 | 215 | 7.0 | 7.0 | 0.00 | 0.00 | 0.00 | 1019.2 | |
| 20260903163111 | 87 | 221 | 10.0 | 9.0 | 0.00 | 0.00 | 0.00 | 1019.3 | |
| 20260903162114 | 87 | 203 | 10.0 | 14.0 | 0.00 | 0.00 | 0.00 | 1019.2 | |
| 20260903161113 | 87 | 208 | 12.0 | 11.0 | 0.00 | 0.00 | 0.00 | 1019.2 | |
| 20260903160116 | 88 | 222 | 8.0 | 12.0 | 0.00 | 0.00 | 0.00 | 1019.3 | |
| 20260903155112 | 88 | 218 | 10.0 | 14.0 | 0.00 | 0.00 | 0.00 | 1019.4 | |
| 20260903154105 | 88 | 225 | 12.0 | 13.0 | 0.00 | 0.00 | 0.00 | 1019.3 | |
| 20260903153107 | 88 | 231 | 11.0 | 9.0 | 0.00 | 0.00 | 0.00 | 1019.3 | |
| 20260903152101 | 89 | 221 | 9.0 | 9.0 | 0.00 | 0.00 | 0.00 | 1019.3 | |
| 20260903151102 | 90 | 242 | 11.0 | 10.0 | 0.00 | 0.00 | 0.00 | 1019.3 | |
| 20260903150104 | 89 | 222 | 11.0 | 10.0 | 0.00 | 0.00 | 0.00 | 1019.4 | |
| 20260903145100 | 91 | 222 | 6.0 | 10.0 | 0.00 | 0.00 | 0.00 | 1019.4 | |
| 20260903144102 | 92 | 233 | 7.0 | 10.0 | 0.00 | 0.00 | 0.00 | 1019.4 | |
| 20260903143054 | 91 | 210 | 11.0 | 6.0 | 0.00 | 0.00 | 0.00 | 1019.4 | |
| 20260903142056 | 92 | 248 | 7.0 | 4.0 | 0.00 | 0.00 | 0.00 | 1019.3 | |
| 20260903141059 | 92 | 212 | 8.0 | 8.0 | 0.00 | 0.00 | 0.00 | 1019.4 | |
| 20260903135103 | 92 | 229 | 10.0 | 10.0 | 0.00 | 0.00 | 0.00 | 1019.3 | |
| 20260903134105 | 93 | 188 | 8.0 | 13.0 | 0.00 | 0.00 | 0.00 | 1019.4 | |
| 20260903133108 | 92 | 238 | 5.0 | 4.0 | 0.00 | 0.00 | 0.00 | 1019.4 | |
| 20260903132104 | 93 | 212 | 9.0 | 8.0 | 0.00 | 0.00 | 0.00 | 1019.3 | |
| 20260903131107 | 92 | 197 | 7.0 | 8.0 | 0.00 | 0.00 | 0.00 | 1019.5 | |
| 20260903130109 | 93 | 170 | 6.0 | 0.0 | 0.00 | 0.00 | 0.00 | 1019.5 | |
| 20260903125105 | 92 | 131 | 5.0 | 6.0 | 0.00 | 0.00 | 0.00 | 1019.6 | |
| 20260903124106 | 92 | 179 | 5.0 | 8.0 | 0.00 | 0.00 | 0.00 | 1019.6 | |
| 20260903123108 | 92 | 110 | 7.0 | 7.0 | 0.00 | 0.00 | 0.00 | 1019.7 | |
| 20260903122111 | 93 | 121 | 5.0 | 6.0 | 0.00 | 0.00 | 0.00 | 1019.8 | |
| 20260903121107 | 91 | 97 | 6.0 | 7.0 | 0.00 | 0.00 | 0.00 | 1019.9 | |
| 20260903120110 | 91 | 135 | 5.0 | 5.0 | 0.00 | 0.00 | 0.00 | 1019.9 | |
| 20260903115112 | 92 | 97 | 6.0 | 1.0 | 0.00 | 0.00 | 0.00 | 1020.1 | |
| 20260903114115 | 92 | 84 | 4.0 | 7.0 | 0.00 | 0.00 | 0.00 | 1020.2 | |
| 20260903113118 | 92 | 183 | 8.0 | 8.0 | 0.00 | 0.00 | 0.00 | 1020.3 | |
| 20260903112120 | 92 | 170 | 6.0 | 5.0 | 0.00 | 0.00 | 0.00 | 1020.4 | |
| 20260903111123 | 91 | 222 | 1.0 | 4.0 | 0.00 | 0.00 | 0.00 | 1020.6 | |
| 20260903110119 | 91 | 221 | 3.0 | 4.0 | 0.00 | 0.00 | 0.00 | 1020.6 | |
| 20260903105121 | 91 | 97 | 7.0 | 5.0 | 0.00 | 0.00 | 0.00 | 1020.8 | |
| 20260903104123 | 90 | 259 | 1.0 | 0.0 | 0.00 | 0.00 | 0.00 | 1021.0 | |
| 20260903103126 | 90 | 132 | 2.0 | 6.0 | 0.00 | 0.00 | 0.00 | 1021.2 | |
| 20260903102129 | 88 | 142 | 7.0 | 7.0 | 0.00 | 0.00 | 0.00 | 1021.2 | |
| 20260903101131 | 88 | 232 | 3.0 | 0.0 | 0.00 | 0.00 | 0.00 | 1021.3 | |
| 20260903100134 | 89 | 86 | 2.0 | 1.0 | 0.00 | 0.00 | 0.00 | 1021.3 | |
| 20260903095125 | 88 | 169 | 5.0 | 5.0 | 0.00 | 0.00 | 0.00 | 1021.2 | |
| 20260903094128 | 87 | 114 | 2.0 | 4.0 | 0.00 | 0.00 | 0.00 | 1021.4 | |
| 20260903093131 | 87 | 82 | 1.0 | 0.0 | 0.00 | 0.00 | 0.00 | 1021.4 | |
| 20260903092133 | 85 | 191 | 0.0 | 0.0 | 0.00 | 0.00 | 0.00 | 1021.5 | |
| 20260903091135 | 84 | 138 | 5.0 | 4.0 | 0.00 | 0.00 | 0.00 | 1021.5 | |
| 20260903090137 | 83 | 228 | 0.0 | 0.0 | 0.00 | 0.00 | 0.00 | 1021.3 | |
| 20260903085138 | 82 | 308 | 0.0 | 0.0 | 0.00 | 0.00 | 0.00 | 1021.2 | |
| 20260903084134 | 81 | 308 | 0.0 | 0.0 | 0.00 | 0.00 | 0.00 | 1021.3 | |
| 20260903083137 | 79 | 280 | 3.0 | 3.0 | 0.00 | 0.00 | 0.00 | 1021.1 | |
| 20260903082140 | 78 | 285 | 4.0 | 6.0 | 0.00 | 0.00 | 0.00 | 1021.2 | |
| 20260903081136 | 77 | 349 | 5.0 | 5.0 | 0.00 | 0.00 | 0.00 | 1021.3 | |
| 20260903080136 | 76 | 325 | 4.0 | 3.0 | 0.00 | 0.00 | 0.00 | 1021.3 | |
| 20260903075137 | 76 | 350 | 5.0 | 5.0 | 0.00 | 0.00 | 0.00 | 1021.4 | |
| 20260903074139 | 77 | 8 | 0.0 | 0.0 | 0.00 | 0.00 | 0.00 | 1021.4 | |
| 20260903073136 | 75 | 8 | 1.0 | 0.0 | 0.00 | 0.00 | 0.00 | 1021.4 | |
| 20260903072136 | 74 | 285 | 4.0 | 4.0 | 0.00 | 0.00 | 0.00 | 1021.4 | |
| 20260903071132 | 75 | 105 | 1.0 | 1.0 | 0.00 | 0.00 | 0.00 | 1021.3 | |
| 20260903070135 | 74 | 117 | 0.0 | 0.0 | 0.00 | 0.00 | 0.00 | 1021.4 | |
| 20260903065137 | 73 | 338 | 1.0 | 3.0 | 0.00 | 0.00 | 0.00 | 1021.4 | |
| 20260903064140 | 72 | 323 | 5.0 | 7.0 | 0.00 | 0.00 | 0.00 | 1021.3 | |
| 20260903063140 | 72 | 330 | 5.0 | 4.0 | 0.00 | 0.00 | 0.00 | 1021.2 | |
| 20260903062136 | 71 | 23 | 4.0 | 3.0 | 0.00 | 0.00 | 0.00 | 1021.0 | |
| 20260903061139 | 71 | 27 | 0.0 | 0.0 | 0.00 | 0.00 | 0.00 | 1020.9 | |
| 20260903060141 | 70 | 318 | 7.0 | 6.0 | 0.00 | 0.00 | 0.00 | 1020.9 | |
| 20260903055144 | 70 | 356 | 6.0 | 5.0 | 0.00 | 0.00 | 0.00 | 1020.7 | |
| 20260903054103 | 70 | 295 | 6.0 | 8.0 | 0.00 | 0.00 | 0.00 | 1020.7 | |
| 20260903053104 | 69 | 295 | 8.0 | 8.0 | 0.00 | 0.00 | 0.00 | 1020.6 | |
| 20260903052107 | 69 | 318 | 6.0 | 8.0 | 0.00 | 0.00 | 0.00 | 1020.6 | |
| 20260903050903 | 70 | 294 | 5.0 | 5.0 | 0.00 | 0.00 | 0.00 | 1020.5 | |
| 20260903045905 | 70 | 325 | 5.0 | 4.0 | 0.00 | 0.00 | 0.00 | 1020.4 | |
| 20260903044908 | 70 | 276 | 4.0 | 4.0 | 0.00 | 0.00 | 0.00 | 1020.3 | |
| 20260903043911 | 70 | 332 | 4.0 | 4.0 | 0.00 | 0.00 | 0.00 | 1020.3 | |
| 20260903042913 | 71 | 294 | 4.0 | 7.0 | 0.00 | 0.00 | 0.00 | 1020.3 | |
| 20260903041914 | 71 | 14 | 0.0 | 0.0 | 0.00 | 0.00 | 0.00 | 1020.3 | |
| 20260903040917 | 71 | 37 | 2.0 | 2.0 | 0.00 | 0.00 | 0.00 | 1020.3 | |
| 20260903035912 | 71 | 82 | 0.0 | 0.0 | 0.00 | 0.00 | 0.00 | 1020.3 | |
| 20260903034915 | 72 | 51 | 3.0 | 1.0 | 0.00 | 0.00 | 0.00 | 1020.2 | |
| 20260903033909 | 71 | 325 | 6.0 | 8.0 | 0.00 | 0.00 | 0.00 | 1020.4 | |
| 20260903032911 | 72 | 326 | 0.0 | 0.0 | 0.00 | 0.00 | 0.00 | 1020.4 | |
| 20260903031914 | 72 | 44 | 0.0 | 0.0 | 0.00 | 0.00 | 0.00 | 1020.4 | |
| 20260903030916 | 72 | 148 | 0.0 | 0.0 | 0.00 | 0.00 | 0.00 | 1020.5 | |
| 20260903025915 | 72 | 148 | 0.0 | 0.0 | 0.00 | 0.00 | 0.00 | 1020.4 | |
| 20260903024909 | 72 | 148 | 0.0 | 1.0 | 0.00 | 0.00 | 0.00 | 1020.5 | |
| 20260903023914 | 72 | 115 | 1.0 | 0.0 | 0.00 | 0.00 | 0.00 | 1020.5 | |
| 20260903023912 | 72 | 115 | 1.0 | 0.0 | 0.00 | 0.00 | 0.00 | 1020.5 | |
| 20260903022914 | 72 | 113 | 1.0 | 1.0 | 0.00 | 0.00 | 0.00 | 1020.5 | |
| 20260903021917 | 72 | 91 | 0.0 | 1.0 | 0.00 | 0.00 | 0.00 | 1020.4 | |
| 20260903020920 | 72 | 111 | 1.0 | 2.0 | 0.00 | 0.00 | 0.00 | 1020.5 | |
| 20260903015922 | 73 | 98 | 0.0 | 0.0 | 0.00 | 0.00 | 0.00 | 1020.5 | |
| 20260903014925 | 73 | 124 | 1.0 | 3.0 | 0.00 | 0.00 | 0.00 | 1020.5 | |
| 20260903013918 | 72 | 139 | 0.0 | 0.0 | 0.00 | 0.00 | 0.00 | 1020.5 | |
| 20260903012921 | 73 | 300 | 0.0 | 0.0 | 0.00 | 0.00 | 0.00 | 1020.4 | |
| 20260903011923 | 75 | 339 | 3.0 | 4.0 | 0.00 | 0.00 | 0.00 | 1020.4 | |
| 20260903010926 | 74 | 336 | 6.0 | 6.0 | 0.00 | 0.00 | 0.00 | 1020.4 | |
| 20260903005925 | 73 | 328 | 7.0 | 5.0 | 0.00 | 0.00 | 0.00 | 1020.4 | |
| 20260903004927 | 74 | 356 | 0.0 | 1.0 | 0.00 | 0.00 | 0.00 | 1020.5 | |
| 20260903003924 | 74 | 97 | 2.0 | 0.0 | 0.00 | 0.00 | 0.00 | 1020.6 | |
| 20260903002913 | 73 | 17 | 1.0 | 0.0 | 0.00 | 0.00 | 0.00 | 1020.6 | |
| 20260903001915 | 74 | 288 | 0.0 | 0.0 | 0.00 | 0.00 | 0.00 | 1020.6 | |
| 20260903000917 | 74 | 184 | 2.0 | 0.0 | 0.00 | 0.00 | 0.00 | 1020.6 | |
| 20260902235918 | 74 | 284 | 0.0 | 4.0 | 0.00 | 0.00 | 0.00 | 1020.7 | |
| 20260902234921 | 74 | 48 | 0.0 | 0.0 | 0.00 | 0.00 | 0.00 | 1020.7 | |
| 20260902233923 | 74 | 1 | 0.0 | 0.0 | 0.00 | 0.00 | 0.00 | 1020.6 | |
| 20260902232922 | 74 | 6 | 0.0 | 0.0 | 0.00 | 0.00 | 0.00 | 1020.6 | |
| 20260902231917 | 74 | 73 | 0.0 | 0.0 | 0.00 | 0.00 | 0.00 | 1020.6 | |
| 20260902230920 | 74 | 73 | 0.0 | 0.0 | 0.00 | 0.00 | 0.00 | 1020.5 | |
| 20260902225923 | 73 | 115 | 3.0 | 3.0 | 0.00 | 0.00 | 0.00 | 1020.4 | |
| 20260902224925 | 75 | 134 | 2.0 | 2.0 | 0.00 | 0.00 | 0.00 | 1020.3 | |
| 20260902223928 | 76 | 124 | 0.0 | 0.0 | 0.00 | 0.00 | 0.00 | 1020.2 | |
| 20260902222930 | 76 | 293 | 2.0 | 2.0 | 0.00 | 0.00 | 0.00 | 1020.2 | |
| 20260902221933 | 75 | 315 | 0.0 | 0.0 | 0.00 | 0.00 | 0.00 | 1020.2 | |
| 20260902220918 | 76 | 301 | 2.0 | 4.0 | 0.00 | 0.00 | 0.00 | 1020.4 | |
| 20260902215921 | 76 | 108 | 0.0 | 0.0 | 0.00 | 0.00 | 0.00 | 1020.5 | |
| 20260902214923 | 76 | 118 | 1.0 | 0.0 | 0.00 | 0.00 | 0.00 | 1020.4 | |
| 20260902213926 | 76 | 177 | 0.0 | 0.0 | 0.00 | 0.00 | 0.00 | 1020.3 | |
| 20260902212927 | 77 | 17 | 0.0 | 0.0 | 0.00 | 0.00 | 0.00 | 1020.3 | |
| 20260902211930 | 77 | 17 | 0.0 | 0.0 | 0.00 | 0.00 | 0.00 | 1020.2 | |
| 20260902210921 | 77 | 17 | 0.0 | 0.0 | 0.00 | 0.00 | 0.00 | 1020.1 | |
| 20260902205914 | 77 | 340 | 2.0 | 2.0 | 0.00 | 0.00 | 0.00 | 1020.1 | |
| 20260902204916 | 78 | 287 | 2.0 | 0.0 | 0.00 | 0.00 | 0.00 | 1020.1 | |
| 20260902203919 | 78 | 350 | 0.0 | 0.0 | 0.00 | 0.00 | 0.00 | 1020.2 | |
| 20260902202919 | 78 | 297 | 0.0 | 0.0 | 0.00 | 0.00 | 0.00 | 1020.2 | |
| 20260902201921 | 78 | 8 | 0.0 | 0.0 | 0.00 | 0.00 | 0.00 | 1020.1 | |
| 20260902200924 | 79 | 8 | 0.0 | 0.0 | 0.00 | 0.00 | 0.00 | 1020.0 | |
| 20260902195926 | 79 | 72 | 1.0 | 4.0 | 0.00 | 0.00 | 0.00 | 1019.9 | |
| 20260902194922 | 79 | 39 | 2.0 | 2.0 | 0.00 | 0.00 | 0.00 | 1019.8 | |
| 20260902193922 | 80 | 60 | 0.0 | 2.0 | 0.00 | 0.00 | 0.00 | 1019.7 | |
| 20260902192925 | 80 | 179 | 0.0 | 2.0 | 0.00 | 0.00 | 0.00 | 1019.5 | |
| 20260902191927 | 80 | 113 | 1.0 | 0.0 | 0.00 | 0.00 | 0.00 | 1019.4 | |
| 20260902190930 | 80 | 158 | 5.0 | 5.0 | 0.00 | 0.00 | 0.00 | 1019.4 |